Home   Weather   Makkah   Past weeks
Flag for Saudi Arabia

Past Weather in Makkah, Saudi Arabia — Yesterday and Last 2 Weeks

Now
99 °F

Sunny.


Feels Like: 115 °F
Forecast: 115 / 92 °F
Wind: 12 mph from Northwest

Location: Jeddah King Abdul Aziz International Airport

Current Time: Jun 27, 2019 at 3:36:55 pm

Latest Report: Jun 27, 2019 at 3:00 pm


Visibility: 10 mi

Pressure: 29.59 "Hg

Humidity: 50%

Dew Point: 77 °F

Location of MakkahLocation

Past Weather in Makkah — Graph

°F

Makkah Temperature Yesterday

Maximum temperature yesterday: 100 °F (at 3:00 pm)
Minimum temperature yesterday: 88 °F (at 5:00 am)
Average temperature yesterday: 93 °F

High & Low Weather Summary for the Past Weeks

 TemperatureHumidityPressure
High118 °F (Jun 21, 1:00 pm)84% (Jun 27, 6:00 am)29.80 "Hg (Jun 27, 6:00 am)
Low79 °F (Jun 14, 4:00 am)4% (Jun 21, 1:00 pm)29.56 "Hg (Jun 21, 4:00 pm)
Average92 °F48%29.68 "Hg
* Reported Jun 12 1:00 pm — Jun 27 1:00 pm, Makkah. Weather by CustomWeather, © 2019

Note: Actual official high and low records may vary slightly from our data, if they occured in-between our weather recording intervals... More about our weather records

Advertising

Makkah Weather History for the Previous 24 Hours

Scroll right to see more
 ConditionsComfort  
Time TempWeatherWind HumidityBarometerVisibility
1:00 pm
Thu, Jun 27
102 °FSunny.12 mph42%29.59 "Hg10 mi
12:00 pm99 °FSunny.14 mph50%29.62 "Hg10 mi
11:00 am97 °FSunny.10 mph53%29.62 "Hg10 mi
10:00 am95 °FSunny.7 mph56%29.65 "Hg10 mi
9:00 am91 °FPassing clouds.9 mph67%29.68 "HgN/A
8:00 am90 °FPassing clouds.10 mph75%29.65 "HgN/A
7:00 am88 °FScattered clouds.9 mph79%29.65 "HgN/A
6:00 am86 °FScattered clouds.8 mph84%29.65 "HgN/A
5:00 am86 °FPassing clouds.5 mph79%29.62 "HgN/A
4:00 am88 °FPassing clouds.8 mph75%29.62 "HgN/A
3:00 am88 °FPassing clouds.8 mph75%29.62 "HgN/A
2:00 am88 °FPassing clouds.5 mph75%29.65 "HgN/A
1:00 am90 °FPassing clouds.6 mph67%29.65 "HgN/A
12:00 am90 °FPassing clouds.7 mph67%29.68 "HgN/A
11:00 pm
Wed, Jun 26
91 °FPassing clouds.5 mph59%29.68 "HgN/A
10:00 pm91 °FClear.6 mph63%29.68 "Hg10 mi
9:00 pm91 °FClear.6 mph63%29.68 "Hg10 mi
8:00 pm91 °FClear.7 mph63%29.68 "Hg10 mi
7:00 pm95 °FPassing clouds.7 mph50%29.68 "HgN/A
6:00 pm97 °FSunny.6 mph44%29.68 "Hg10 mi
5:00 pm99 °FSunny.9 mph42%29.68 "Hg10 mi
4:00 pm99 °FSunny.9 mph35%29.68 "Hg10 mi
3:00 pm100 °FSunny.9 mph35%29.71 "Hg10 mi
Weather by CustomWeather, © 2019

See weather overview